Year,Month,Day,Hour,Minute,Value (Times are PST for temperature in C)
2009,08,24,00,00,11.90
2009,08,24,00,01,11.90
2009,08,24,00,02,11.80
2009,08,24,00,03,11.80
2009,08,24,00,04,11.80
2009,08,24,00,05,11.80
2009,08,24,00,06,11.80
2009,08,24,00,07,11.80
2009,08,24,00,08,11.80
2009,08,24,00,09,11.80
2009,08,24,00,10,11.80
2009,08,24,00,11,11.70
2009,08,24,00,12,11.70
2009,08,24,00,13,11.70
2009,08,24,00,14,11.70
2009,08,24,00,15,11.70
2009,08,24,00,16,11.60
2009,08,24,00,17,11.60
2009,08,24,00,18,11.60
2009,08,24,00,19,11.60
2009,08,24,00,20,11.60
2009,08,24,00,21,11.60
2009,08,24,00,22,11.60
2009,08,24,00,23,11.60
2009,08,24,00,24,11.60
2009,08,24,00,25,11.60
2009,08,24,00,26,11.60
2009,08,24,00,27,11.60
2009,08,24,00,28,11.60
2009,08,24,00,29,11.50
2009,08,24,00,30,11.40
2009,08,24,00,31,11.40
2009,08,24,00,32,11.40
2009,08,24,00,33,11.40
2009,08,24,00,34,11.40
2009,08,24,00,35,11.40
2009,08,24,00,36,11.40
2009,08,24,00,37,11.40
2009,08,24,00,38,11.40
2009,08,24,00,39,11.40
2009,08,24,00,40,11.30
2009,08,24,00,41,11.30
2009,08,24,00,42,11.30
2009,08,24,00,43,11.30
2009,08,24,00,44,11.20
2009,08,24,00,45,11.20
2009,08,24,00,46,11.20
2009,08,24,00,47,11.20
2009,08,24,00,48,11.20
2009,08,24,00,49,11.20
2009,08,24,00,50,11.20
2009,08,24,00,51,11.20
2009,08,24,00,52,11.10
2009,08,24,00,53,11.10
2009,08,24,00,54,11.10
2009,08,24,00,55,11.10
2009,08,24,00,56,11.10
2009,08,24,00,57,11.10
2009,08,24,00,58,11.10
2009,08,24,00,59,11.10
2009,08,24,01,00,11.10
2009,08,24,01,01,11.10
2009,08,24,01,02,11.10
2009,08,24,01,03,11.10
2009,08,24,01,04,11.10
2009,08,24,01,05,11.10
2009,08,24,01,06,11.00
2009,08,24,01,07,10.90
2009,08,24,01,08,10.90
2009,08,24,01,09,10.90
2009,08,24,01,10,10.90
2009,08,24,01,11,10.90
2009,08,24,01,12,10.90
2009,08,24,01,13,10.90
2009,08,24,01,14,10.90
2009,08,24,01,15,10.90
2009,08,24,01,16,10.90
2009,08,24,01,17,10.90
2009,08,24,01,18,10.80
2009,08,24,01,19,10.80
2009,08,24,01,20,10.80
2009,08,24,01,21,10.80
2009,08,24,01,22,10.80
2009,08,24,01,23,10.70
2009,08,24,01,24,10.70
2009,08,24,01,25,10.70
2009,08,24,01,26,10.70
2009,08,24,01,27,10.70
2009,08,24,01,28,10.70
2009,08,24,01,29,10.70
2009,08,24,01,30,10.70
2009,08,24,01,31,10.70
2009,08,24,01,32,10.70
2009,08,24,01,33,10.60
2009,08,24,01,34,10.60
2009,08,24,01,35,10.60
2009,08,24,01,36,10.60
2009,08,24,01,37,10.60
2009,08,24,01,38,10.60
2009,08,24,01,39,10.60
2009,08,24,01,40,10.60
2009,08,24,01,41,10.60
2009,08,24,01,42,10.60
2009,08,24,01,43,10.60
2009,08,24,01,44,10.60
2009,08,24,01,45,10.60
2009,08,24,01,46,10.60
2009,08,24,01,47,10.60
2009,08,24,01,48,10.60
2009,08,24,01,49,10.60
2009,08,24,01,50,10.60
2009,08,24,01,51,10.60
2009,08,24,01,52,10.60
2009,08,24,01,53,10.60
2009,08,24,01,54,10.60
2009,08,24,01,55,10.60
2009,08,24,01,56,10.60
2009,08,24,01,57,10.60
2009,08,24,01,58,10.60
2009,08,24,01,59,10.60
2009,08,24,02,00,10.60
2009,08,24,02,01,10.60
2009,08,24,02,02,10.60
2009,08,24,02,03,10.60
2009,08,24,02,04,10.60
2009,08,24,02,05,10.60
2009,08,24,02,06,10.50
2009,08,24,02,07,10.40
2009,08,24,02,08,10.40
2009,08,24,02,09,10.40
2009,08,24,02,10,10.40
2009,08,24,02,11,10.40
2009,08,24,02,12,10.40
2009,08,24,02,13,10.40
2009,08,24,02,14,10.40
2009,08,24,02,15,10.40
2009,08,24,02,16,10.40
2009,08,24,02,17,10.40
2009,08,24,02,18,10.40
2009,08,24,02,19,10.40
2009,08,24,02,20,10.40
2009,08,24,02,21,10.40
2009,08,24,02,22,10.40
2009,08,24,02,23,10.30
2009,08,24,02,24,10.30
2009,08,24,02,25,10.30
2009,08,24,02,26,10.30
2009,08,24,02,27,10.30
2009,08,24,02,28,10.30
2009,08,24,02,29,10.30
2009,08,24,02,30,10.30
2009,08,24,02,31,10.30
2009,08,24,02,32,10.30
2009,08,24,02,33,10.30
2009,08,24,02,34,10.30
2009,08,24,02,35,10.30
2009,08,24,02,36,10.20
2009,08,24,02,37,10.20
2009,08,24,02,38,10.20
2009,08,24,02,39,10.20
2009,08,24,02,40,10.20
2009,08,24,02,41,10.20
2009,08,24,02,42,10.20
2009,08,24,02,43,10.20
2009,08,24,02,44,10.20
2009,08,24,02,45,10.20
2009,08,24,02,46,10.20
2009,08,24,02,47,10.20
2009,08,24,02,48,10.20
2009,08,24,02,49,10.10
2009,08,24,02,50,10.10
2009,08,24,02,51,10.10
2009,08,24,02,52,10.10
2009,08,24,02,53,10.10
2009,08,24,02,54,10.10
2009,08,24,02,55,10.10
2009,08,24,02,56,10.10
2009,08,24,02,57,10.10
2009,08,24,02,58,10.10
2009,08,24,02,59,10.10
2009,08,24,03,00,10.10
2009,08,24,03,01,10.10
2009,08,24,03,02,10.10
2009,08,24,03,03,10.10
2009,08,24,03,04,10.10
2009,08,24,03,05,10.10
2009,08,24,03,06,10.10
2009,08,24,03,07,10.10
2009,08,24,03,08,10.10
2009,08,24,03,09,10.10
2009,08,24,03,10,10.10
2009,08,24,03,11,10.10
2009,08,24,03,12,10.10
2009,08,24,03,13,9.90
2009,08,24,03,14,9.90
2009,08,24,03,15,9.90
2009,08,24,03,16,9.90
2009,08,24,03,17,9.90
2009,08,24,03,18,9.90
2009,08,24,03,19,9.90
2009,08,24,03,20,9.90
2009,08,24,03,21,9.90
2009,08,24,03,22,9.90
2009,08,24,03,23,9.90
2009,08,24,03,24,9.90
2009,08,24,03,25,9.90
2009,08,24,03,26,9.90
2009,08,24,03,27,9.90
2009,08,24,03,28,9.90
2009,08,24,03,29,9.90
2009,08,24,03,30,9.90
2009,08,24,03,31,9.90
2009,08,24,03,32,9.80
2009,08,24,03,33,9.80
2009,08,24,03,34,9.80
2009,08,24,03,35,9.80
2009,08,24,03,36,9.80
2009,08,24,03,37,9.80
2009,08,24,03,38,9.80
2009,08,24,03,39,9.80
2009,08,24,03,40,9.80
2009,08,24,03,41,9.80
2009,08,24,03,42,9.70
2009,08,24,03,43,9.70
2009,08,24,03,44,9.70
2009,08,24,03,45,9.70
2009,08,24,03,46,9.70
2009,08,24,03,47,9.70
2009,08,24,03,48,9.70
2009,08,24,03,49,9.70
2009,08,24,03,50,9.70
2009,08,24,03,51,9.70
2009,08,24,03,52,9.70
2009,08,24,03,53,9.70
2009,08,24,03,54,9.70
2009,08,24,03,55,9.70
2009,08,24,03,56,9.70
2009,08,24,03,57,9.70
2009,08,24,03,58,9.70
2009,08,24,03,59,9.70
2009,08,24,04,00,9.70
2009,08,24,04,01,9.70
2009,08,24,04,02,9.70
2009,08,24,04,03,9.70
2009,08,24,04,04,9.70
2009,08,24,04,05,9.70
2009,08,24,04,06,9.60
2009,08,24,04,07,9.60
2009,08,24,04,08,9.60
2009,08,24,04,09,9.60
2009,08,24,04,10,9.60
2009,08,24,04,11,9.60
2009,08,24,04,12,9.60
2009,08,24,04,13,9.60
2009,08,24,04,14,9.60
2009,08,24,04,15,9.60
2009,08,24,04,16,9.60
2009,08,24,04,17,9.60
2009,08,24,04,18,9.60
2009,08,24,04,19,9.60
2009,08,24,04,20,9.60
2009,08,24,04,21,9.50
2009,08,24,04,22,9.50
2009,08,24,04,23,9.50
2009,08,24,04,24,9.50
2009,08,24,04,25,9.50
2009,08,24,04,26,9.50
2009,08,24,04,27,9.50
2009,08,24,04,28,9.50
2009,08,24,04,29,9.50
2009,08,24,04,30,9.50
2009,08,24,04,31,9.50
2009,08,24,04,32,9.50
2009,08,24,04,33,9.50
2009,08,24,04,34,9.50
2009,08,24,04,35,9.50
2009,08,24,04,36,9.40
2009,08,24,04,37,9.40
2009,08,24,04,38,9.40
2009,08,24,04,39,9.40
2009,08,24,04,40,9.40
2009,08,24,04,41,9.40
2009,08,24,04,42,9.40
2009,08,24,04,43,9.40
2009,08,24,04,44,9.40
2009,08,24,04,45,9.40
2009,08,24,04,46,9.40
2009,08,24,04,47,9.40
2009,08,24,04,48,9.40
2009,08,24,04,49,9.40
2009,08,24,04,50,9.40
2009,08,24,04,51,9.40
2009,08,24,04,52,9.40
2009,08,24,04,53,9.40
2009,08,24,04,54,9.40
2009,08,24,04,55,9.30
2009,08,24,04,56,9.30
2009,08,24,04,57,9.30
2009,08,24,04,58,9.30
2009,08,24,04,59,9.30
2009,08,24,05,00,9.30
2009,08,24,05,01,9.30
2009,08,24,05,02,9.30
2009,08,24,05,03,9.30
2009,08,24,05,04,9.30
2009,08,24,05,05,9.30
2009,08,24,05,06,9.30
2009,08,24,05,07,9.30
2009,08,24,05,08,9.30
2009,08,24,05,09,9.30
2009,08,24,05,10,9.30
2009,08,24,05,11,9.30
2009,08,24,05,12,9.30
2009,08,24,05,13,9.30
2009,08,24,05,14,9.30
2009,08,24,05,15,9.30
2009,08,24,05,16,9.20
2009,08,24,05,17,9.20
2009,08,24,05,18,9.20
2009,08,24,05,19,9.20
2009,08,24,05,20,9.20
2009,08,24,05,21,9.20
2009,08,24,05,22,9.20
2009,08,24,05,23,9.20
2009,08,24,05,24,9.20
2009,08,24,05,25,9.20
2009,08,24,05,26,9.20
2009,08,24,05,27,9.20
2009,08,24,05,28,9.20
2009,08,24,05,29,9.20
2009,08,24,05,30,9.20
2009,08,24,05,31,9.20
2009,08,24,05,32,9.20
2009,08,24,05,33,9.20
2009,08,24,05,34,9.20
2009,08,24,05,35,9.20
2009,08,24,05,36,9.20
2009,08,24,05,37,9.20
2009,08,24,05,38,9.20
2009,08,24,05,39,9.20
2009,08,24,05,40,9.20
2009,08,24,05,41,9.20
2009,08,24,05,42,9.20
2009,08,24,05,43,9.20
2009,08,24,05,44,9.20
2009,08,24,05,45,9.20
2009,08,24,05,46,9.20
2009,08,24,05,47,9.20
2009,08,24,05,48,9.20
2009,08,24,05,49,9.20
2009,08,24,05,50,9.20
2009,08,24,05,51,9.20
2009,08,24,05,52,9.20
2009,08,24,05,53,9.20
2009,08,24,05,54,9.20
2009,08,24,05,55,9.20
2009,08,24,05,56,9.20
2009,08,24,05,57,9.20
2009,08,24,05,58,9.20
2009,08,24,05,59,9.20
2009,08,24,06,00,9.20
2009,08,24,06,01,9.20
2009,08,24,06,02,9.20
2009,08,24,06,03,9.20
2009,08,24,06,04,9.20
2009,08,24,06,05,9.20
2009,08,24,06,06,9.20
2009,08,24,06,07,9.20
2009,08,24,06,08,9.20
2009,08,24,06,09,9.20
2009,08,24,06,10,9.20
2009,08,24,06,11,9.20
2009,08,24,06,12,9.20
2009,08,24,06,13,9.10
2009,08,24,06,14,9.10
2009,08,24,06,15,9.10
2009,08,24,06,16,9.10
2009,08,24,06,17,9.10
2009,08,24,06,18,9.10
2009,08,24,06,19,9.10
2009,08,24,06,20,9.10
2009,08,24,06,21,9.10
2009,08,24,06,22,9.10
2009,08,24,06,23,9.10
2009,08,24,06,24,9.10
2009,08,24,06,25,9.10
2009,08,24,06,26,9.10
2009,08,24,06,27,9.10
2009,08,24,06,28,9.10
2009,08,24,06,29,9.10
2009,08,24,06,30,9.10
2009,08,24,06,31,9.10
2009,08,24,06,32,9.10
2009,08,24,06,33,9.10
2009,08,24,06,34,9.10
2009,08,24,06,35,9.10
2009,08,24,06,36,9.10
2009,08,24,06,37,9.10
2009,08,24,06,38,9.10
2009,08,24,06,39,9.10
2009,08,24,06,40,9.10
2009,08,24,06,41,9.10
2009,08,24,06,42,9.00
2009,08,24,06,43,9.00
2009,08,24,06,44,9.00
2009,08,24,06,45,9.00
2009,08,24,06,46,9.00
2009,08,24,06,47,9.00
2009,08,24,06,48,9.00
2009,08,24,06,49,9.00
2009,08,24,06,50,9.00
2009,08,24,06,51,9.00
2009,08,24,06,52,9.00
2009,08,24,06,53,9.00
2009,08,24,06,54,9.00
2009,08,24,06,55,9.00
2009,08,24,06,56,9.00
2009,08,24,06,57,9.00
2009,08,24,06,58,9.00
2009,08,24,06,59,9.00
2009,08,24,07,00,9.00
2009,08,24,07,01,9.00
2009,08,24,07,02,9.00
2009,08,24,07,03,9.00
2009,08,24,07,04,9.00
2009,08,24,07,05,9.00
2009,08,24,07,06,9.00
2009,08,24,07,07,9.00
2009,08,24,07,08,9.00
2009,08,24,07,09,9.00
2009,08,24,07,10,9.00
2009,08,24,07,11,9.00
2009,08,24,07,12,9.00
2009,08,24,07,13,9.00
2009,08,24,07,14,9.10
2009,08,24,07,15,9.20
2009,08,24,07,16,9.20
2009,08,24,07,17,9.30
2009,08,24,07,18,9.30
2009,08,24,07,19,9.40
2009,08,24,07,20,9.40
2009,08,24,07,21,9.40
2009,08,24,07,22,9.50
2009,08,24,07,23,9.50
2009,08,24,07,24,9.50
2009,08,24,07,25,9.60
2009,08,24,07,26,9.60
2009,08,24,07,27,9.70
2009,08,24,07,28,9.70
2009,08,24,07,29,9.70
2009,08,24,07,30,9.70
2009,08,24,07,31,9.80
2009,08,24,07,32,9.90
2009,08,24,07,33,9.90
2009,08,24,07,34,9.90
2009,08,24,07,35,9.90
2009,08,24,07,36,10.00
2009,08,24,07,37,10.10
2009,08,24,07,38,10.10
2009,08,24,07,39,10.10
2009,08,24,07,40,10.10
2009,08,24,07,41,10.20
2009,08,24,07,42,10.20
2009,08,24,07,43,10.20
2009,08,24,07,44,10.20
2009,08,24,07,45,10.30
2009,08,24,07,46,10.30
2009,08,24,07,47,10.40
2009,08,24,07,48,10.40
2009,08,24,07,49,10.40
2009,08,24,07,50,10.40
2009,08,24,07,51,10.50
2009,08,24,07,52,10.60
2009,08,24,07,53,10.60
2009,08,24,07,54,10.60
2009,08,24,07,55,10.60
2009,08,24,07,56,10.60
2009,08,24,07,57,10.70
2009,08,24,07,58,10.70
2009,08,24,07,59,10.70
2009,08,24,08,00,10.80
2009,08,24,08,01,10.80
2009,08,24,08,02,10.80
2009,08,24,08,03,10.80
2009,08,24,08,04,10.90
2009,08,24,08,05,10.90
2009,08,24,08,06,10.90
2009,08,24,08,07,10.90
2009,08,24,08,08,10.90
2009,08,24,08,09,10.90
2009,08,24,08,10,10.90
2009,08,24,08,11,10.90
2009,08,24,08,12,11.00
2009,08,24,08,13,11.10
2009,08,24,08,14,11.10
2009,08,24,08,15,11.10
2009,08,24,08,16,11.10
2009,08,24,08,17,11.10
2009,08,24,08,18,11.10
2009,08,24,08,19,11.10
2009,08,24,08,20,11.10
2009,08,24,08,21,11.10
2009,08,24,08,22,11.10
2009,08,24,08,23,11.10
2009,08,24,08,24,11.10
2009,08,24,08,25,11.10
2009,08,24,08,26,11.10
2009,08,24,08,27,11.10
2009,08,24,08,28,11.10
2009,08,24,08,29,11.10
2009,08,24,08,30,11.10
2009,08,24,08,31,11.10
2009,08,24,08,32,11.10
2009,08,24,08,33,11.10
2009,08,24,08,34,11.10
2009,08,24,08,35,11.10
2009,08,24,08,36,11.10
2009,08,24,08,37,11.10
2009,08,24,08,38,11.10
2009,08,24,08,39,11.10
2009,08,24,08,40,11.10
2009,08,24,08,41,11.10
2009,08,24,08,42,11.10
2009,08,24,08,43,10.90
2009,08,24,08,44,10.90
2009,08,24,08,45,10.90
2009,08,24,08,46,10.90
2009,08,24,08,47,10.90
2009,08,24,08,48,10.90
2009,08,24,08,49,10.80
2009,08,24,08,50,10.80
2009,08,24,08,51,10.80
2009,08,24,08,52,10.70
2009,08,24,08,53,10.70
2009,08,24,08,54,10.70
2009,08,24,08,55,10.70
2009,08,24,08,56,10.70
2009,08,24,08,57,10.70
2009,08,24,08,58,10.70
2009,08,24,08,59,10.60
2009,08,24,09,00,10.60
2009,08,24,09,01,10.60
2009,08,24,09,02,10.60
2009,08,24,09,03,10.60
2009,08,24,09,04,10.60
2009,08,24,09,05,10.60
2009,08,24,09,06,10.60
2009,08,24,09,07,10.60
2009,08,24,09,08,10.60
2009,08,24,09,09,10.60
2009,08,24,09,10,10.60
2009,08,24,09,11,10.60
2009,08,24,09,12,10.60
2009,08,24,09,13,10.60
2009,08,24,09,14,10.60
2009,08,24,09,15,10.60
2009,08,24,09,16,10.60
2009,08,24,09,17,10.60
2009,08,24,09,18,10.50
2009,08,24,09,19,10.50
2009,08,24,09,20,10.60
2009,08,24,09,21,10.60
2009,08,24,09,22,10.60
2009,08,24,09,23,10.60
2009,08,24,09,24,10.60
2009,08,24,09,25,10.70
2009,08,24,09,26,10.70
2009,08,24,09,27,10.80
2009,08,24,09,28,10.90
2009,08,24,09,29,10.90
2009,08,24,09,30,11.00
2009,08,24,09,31,11.10
2009,08,24,09,32,11.20
2009,08,24,09,33,11.30
2009,08,24,09,34,11.40
2009,08,24,09,35,11.50
2009,08,24,09,36,11.60
2009,08,24,09,37,11.70
2009,08,24,09,38,11.80
2009,08,24,09,39,11.90
2009,08,24,09,40,12.00
2009,08,24,09,41,12.10
2009,08,24,09,42,12.30
2009,08,24,09,43,12.30
2009,08,24,09,44,12.30
2009,08,24,09,45,12.30
2009,08,24,09,46,12.30
2009,08,24,09,47,12.30
2009,08,24,09,48,12.30
2009,08,24,09,49,12.20
2009,08,24,09,50,12.20
2009,08,24,09,51,12.10
2009,08,24,09,52,12.10
2009,08,24,09,53,12.00
2009,08,24,09,54,11.90
2009,08,24,09,55,11.90
2009,08,24,09,56,11.90
2009,08,24,09,57,11.90
2009,08,24,09,58,11.90
2009,08,24,09,59,11.80
2009,08,24,10,00,11.80
2009,08,24,10,01,11.80
2009,08,24,10,02,11.80
2009,08,24,10,03,11.80
2009,08,24,10,04,11.80
2009,08,24,10,05,11.80
2009,08,24,10,06,11.90
2009,08,24,10,07,12.00
2009,08,24,10,08,12.00
2009,08,24,10,09,12.10
2009,08,24,10,10,12.20
2009,08,24,10,11,12.30
2009,08,24,10,12,12.30
2009,08,24,10,13,12.40
2009,08,24,10,14,12.50
2009,08,24,10,15,12.60
2009,08,24,10,16,12.70
2009,08,24,10,17,12.80
2009,08,24,10,18,12.80
2009,08,24,10,19,12.90
2009,08,24,10,20,13.00
2009,08,24,10,21,13.10
2009,08,24,10,22,13.20
2009,08,24,10,23,13.30
2009,08,24,10,24,13.40
2009,08,24,10,25,13.50
2009,08,24,10,26,13.50
2009,08,24,10,27,13.60
2009,08,24,10,28,13.60
2009,08,24,10,29,13.70
2009,08,24,10,30,13.90
2009,08,24,10,31,14.00
2009,08,24,10,32,14.10
2009,08,24,10,33,14.20
2009,08,24,10,34,14.40
2009,08,24,10,35,14.50
2009,08,24,10,36,14.50
2009,08,24,10,37,14.40
2009,08,24,10,38,14.40
2009,08,24,10,39,14.50
2009,08,24,10,40,14.60
2009,08,24,10,41,14.70
2009,08,24,10,42,14.80
2009,08,24,10,43,14.80
2009,08,24,10,44,14.80
2009,08,24,10,45,14.80
2009,08,24,10,46,14.80
2009,08,24,10,47,14.80
2009,08,24,10,48,14.80
2009,08,24,10,49,14.80
2009,08,24,10,50,14.80
2009,08,24,10,51,14.80
2009,08,24,10,52,14.80
2009,08,24,10,53,14.90
2009,08,24,10,54,14.90
2009,08,24,10,58,15.20
2009,08,24,10,59,15.10
2009,08,24,11,00,15.10
2009,08,24,11,01,15.10
2009,08,24,11,02,15.10
2009,08,24,11,03,15.10
2009,08,24,11,04,15.00
2009,08,24,11,05,14.90
2009,08,24,11,06,14.80
2009,08,24,11,07,14.80
2009,08,24,11,08,14.80
2009,08,24,11,09,14.80
2009,08,24,11,10,15.00
2009,08,24,11,11,15.10
2009,08,24,11,12,15.20
2009,08,24,11,13,15.30
2009,08,24,11,14,15.30
2009,08,24,11,15,15.20
2009,08,24,11,16,15.20
2009,08,24,11,17,15.30
2009,08,24,11,18,15.30
2009,08,24,11,19,15.20
2009,08,24,11,20,15.20
2009,08,24,11,21,15.10
2009,08,24,11,22,15.10
2009,08,24,11,23,15.00
2009,08,24,11,24,15.00
2009,08,24,11,25,15.10
2009,08,24,11,26,15.10
2009,08,24,11,27,15.20
2009,08,24,11,28,15.20
2009,08,24,11,29,15.30
2009,08,24,11,30,15.30
2009,08,24,11,31,15.30
2009,08,24,11,32,15.30
2009,08,24,11,33,15.30
2009,08,24,11,34,15.40
2009,08,24,11,35,15.50
2009,08,24,11,36,15.50
2009,08,24,11,37,15.60
2009,08,24,11,38,15.50
2009,08,24,11,39,15.40
2009,08,24,11,40,15.40
2009,08,24,11,41,15.40
2009,08,24,11,42,15.30
2009,08,24,11,43,15.30
2009,08,24,11,44,15.30
2009,08,24,11,45,15.40
2009,08,24,11,46,15.50
2009,08,24,11,47,15.50
2009,08,24,11,48,15.60
2009,08,24,11,49,15.70
2009,08,24,11,50,15.70
2009,08,24,11,51,15.70
2009,08,24,11,52,15.70
2009,08,24,11,53,15.60
2009,08,24,11,54,15.50
2009,08,24,11,55,15.40
2009,08,24,11,56,15.40
2009,08,24,11,57,15.30
2009,08,24,11,58,15.30
2009,08,24,11,59,15.30
2009,08,24,12,00,15.30
2009,08,24,12,01,15.30
2009,08,24,12,02,15.30
2009,08,24,12,03,15.30
2009,08,24,12,04,15.40
2009,08,24,12,05,15.40
2009,08,24,12,06,15.40
2009,08,24,12,07,15.40
2009,08,24,12,08,15.50
2009,08,24,12,09,15.50
2009,08,24,12,10,15.50
2009,08,24,12,11,15.50
2009,08,24,12,12,15.50
2009,08,24,12,13,15.50
2009,08,24,12,14,15.50
2009,08,24,12,15,15.60
2009,08,24,12,16,15.60
2009,08,24,12,17,15.70
2009,08,24,12,18,15.80
2009,08,24,12,19,15.90
2009,08,24,12,20,16.00
2009,08,24,12,21,16.10
2009,08,24,12,22,16.20
2009,08,24,12,23,16.30
2009,08,24,12,24,16.30
2009,08,24,12,25,16.30
2009,08,24,12,26,16.20
2009,08,24,12,27,16.20
2009,08,24,12,28,16.20
2009,08,24,12,29,16.20
2009,08,24,12,30,16.20
2009,08,24,12,31,16.30
2009,08,24,12,32,16.40
2009,08,24,12,33,16.40
2009,08,24,12,34,16.40
2009,08,24,12,35,16.40
2009,08,24,12,36,16.40
2009,08,24,12,37,16.40
2009,08,24,12,38,16.40
2009,08,24,12,39,16.40
2009,08,24,12,40,16.40
2009,08,24,12,41,16.60
2009,08,24,12,42,16.70
2009,08,24,12,43,16.90
2009,08,24,12,44,16.90
2009,08,24,12,45,17.00
2009,08,24,12,46,17.00
2009,08,24,12,47,17.10
2009,08,24,12,48,17.20
2009,08,24,12,49,17.30
2009,08,24,12,50,17.30
2009,08,24,12,51,17.30
2009,08,24,12,52,17.20
2009,08,24,12,53,17.10
2009,08,24,12,54,17.20
2009,08,24,12,55,17.20
2009,08,24,12,56,17.20
2009,08,24,12,57,17.20
2009,08,24,12,58,17.10
2009,08,24,12,59,17.00
2009,08,24,13,00,17.00
2009,08,24,13,01,16.90
2009,08,24,13,02,16.80
2009,08,24,13,03,16.90
2009,08,24,13,04,16.90
2009,08,24,13,05,16.90
2009,08,24,13,06,16.90
2009,08,24,13,07,16.90
2009,08,24,13,08,17.00
2009,08,24,13,09,17.10
2009,08,24,13,10,17.20
2009,08,24,13,11,17.30
2009,08,24,13,12,17.40
2009,08,24,13,13,17.40
2009,08,24,13,14,17.40
2009,08,24,13,15,17.40
2009,08,24,13,16,17.50
2009,08,24,13,17,17.50
2009,08,24,13,18,17.60
2009,08,24,13,19,17.70
2009,08,24,13,20,17.80
2009,08,24,13,21,17.80
2009,08,24,13,22,17.90
2009,08,24,13,23,17.90
2009,08,24,13,24,17.90
2009,08,24,13,25,17.80
2009,08,24,13,26,17.70
2009,08,24,13,27,17.60
2009,08,24,13,28,17.50
2009,08,24,13,29,17.50
2009,08,24,13,30,17.40
2009,08,24,13,31,17.30
2009,08,24,13,32,17.30
2009,08,24,13,33,17.30
2009,08,24,13,34,17.30
2009,08,24,13,35,17.30
2009,08,24,13,36,17.30
2009,08,24,13,37,17.20
2009,08,24,13,38,17.20
2009,08,24,13,39,17.20
2009,08,24,13,40,17.30
2009,08,24,13,41,17.30
2009,08,24,13,42,17.40
2009,08,24,13,43,17.40
2009,08,24,13,44,17.50
2009,08,24,13,45,17.50
2009,08,24,13,46,17.60
2009,08,24,13,47,17.60
2009,08,24,13,48,17.50
2009,08,24,13,49,17.60
2009,08,24,13,50,17.60
2009,08,24,13,51,17.70
2009,08,24,13,52,17.80
2009,08,24,13,53,17.80
2009,08,24,13,54,17.80
2009,08,24,13,55,17.80
2009,08,24,13,56,17.80
2009,08,24,13,57,17.80
2009,08,24,13,58,17.80
2009,08,24,13,59,17.80
2009,08,24,14,00,17.90
2009,08,24,14,01,17.90
2009,08,24,14,02,17.90
2009,08,24,14,03,17.90
2009,08,24,14,04,17.90
2009,08,24,14,05,17.90
2009,08,24,14,06,17.90
2009,08,24,14,07,18.00
2009,08,24,14,08,17.90
2009,08,24,14,09,18.00
2009,08,24,14,10,18.10
2009,08,24,14,11,17.90
2009,08,24,14,12,17.90
2009,08,24,14,13,17.90
2009,08,24,14,14,18.00
2009,08,24,14,15,18.10
2009,08,24,14,16,18.20
2009,08,24,14,17,18.20
2009,08,24,14,18,18.20
2009,08,24,14,19,18.20
2009,08,24,14,20,18.20
2009,08,24,14,21,18.20
2009,08,24,14,22,18.20
2009,08,24,14,23,18.20
2009,08,24,14,24,18.30
2009,08,24,14,25,18.30
2009,08,24,14,26,18.30
2009,08,24,14,27,18.20
2009,08,24,14,28,18.20
2009,08,24,14,29,18.20
2009,08,24,14,30,18.20
2009,08,24,14,31,18.20
2009,08,24,14,32,18.30
2009,08,24,14,33,18.40
2009,08,24,14,34,18.40
2009,08,24,14,35,18.50
2009,08,24,14,36,18.50
2009,08,24,14,37,18.60
2009,08,24,14,38,18.60
2009,08,24,14,39,18.60
2009,08,24,14,40,18.60
2009,08,24,14,41,18.70
2009,08,24,14,42,18.80
2009,08,24,14,43,18.90
2009,08,24,14,44,18.90
2009,08,24,14,45,19.00
2009,08,24,14,46,19.10
2009,08,24,14,47,19.10
2009,08,24,14,48,19.20
2009,08,24,14,49,19.30
2009,08,24,14,50,19.40
2009,08,24,14,51,19.40
2009,08,24,14,52,19.40
2009,08,24,14,53,19.40
2009,08,24,14,54,19.40
2009,08,24,14,55,19.60
2009,08,24,14,56,19.70
2009,08,24,14,57,19.70
2009,08,24,14,58,19.70
2009,08,24,14,59,19.70
2009,08,24,15,00,19.90
2009,08,24,15,01,20.00
2009,08,24,15,02,20.10
2009,08,24,15,03,20.20
2009,08,24,15,04,20.20
2009,08,24,15,05,20.20
2009,08,24,15,06,20.20
2009,08,24,15,07,20.10
2009,08,24,15,08,20.00
2009,08,24,15,09,19.90
2009,08,24,15,10,19.90
2009,08,24,15,11,19.90
2009,08,24,15,12,19.90
2009,08,24,15,13,19.90
2009,08,24,15,14,19.90
2009,08,24,15,15,20.00
2009,08,24,15,16,20.10
2009,08,24,15,17,20.10
2009,08,24,15,18,20.00
2009,08,24,15,19,19.90
2009,08,24,15,20,19.80
2009,08,24,15,21,19.70
2009,08,24,15,22,19.50
2009,08,24,15,23,19.50
2009,08,24,15,24,19.40
2009,08,24,15,25,19.40
2009,08,24,15,26,19.40
2009,08,24,15,27,19.40
2009,08,24,15,28,19.40
2009,08,24,15,29,19.40
2009,08,24,15,30,19.40
2009,08,24,15,31,19.40
2009,08,24,15,32,19.40
2009,08,24,15,33,19.50
2009,08,24,15,34,19.60
2009,08,24,15,35,19.60
2009,08,24,15,36,19.60
2009,08,24,15,37,19.60
2009,08,24,15,38,19.70
2009,08,24,15,39,19.70
2009,08,24,15,40,19.70
2009,08,24,15,41,19.70
2009,08,24,15,42,19.70
2009,08,24,15,43,19.70
2009,08,24,15,44,19.60
2009,08,24,15,45,19.60
2009,08,24,15,46,19.60
2009,08,24,15,47,19.60
2009,08,24,15,48,19.50
2009,08,24,15,49,19.40
2009,08,24,15,50,19.40
2009,08,24,15,51,19.30
2009,08,24,15,52,19.30
2009,08,24,15,53,19.30
2009,08,24,15,54,19.30
2009,08,24,15,55,19.30
2009,08,24,15,56,19.20
2009,08,24,15,57,19.20
2009,08,24,15,58,19.20
2009,08,24,15,59,19.20
2009,08,24,16,00,19.10
2009,08,24,16,01,19.10
2009,08,24,16,02,19.10
2009,08,24,16,03,19.10
2009,08,24,16,04,19.10
2009,08,24,16,05,19.10
2009,08,24,16,06,19.10
2009,08,24,16,07,19.30
2009,08,24,16,08,19.40
2009,08,24,16,09,19.50
2009,08,24,16,10,19.50
2009,08,24,16,11,19.50
2009,08,24,16,12,19.40
2009,08,24,16,13,19.40
2009,08,24,16,14,19.30
2009,08,24,16,15,19.30
2009,08,24,16,16,19.20
2009,08,24,16,17,19.20
2009,08,24,16,18,19.10
2009,08,24,16,19,19.10
2009,08,24,16,20,19.10
2009,08,24,16,21,19.10
2009,08,24,16,22,19.10
2009,08,24,16,23,19.20
2009,08,24,16,24,19.30
2009,08,24,16,25,19.40
2009,08,24,16,26,19.50
2009,08,24,16,27,19.60
2009,08,24,16,28,19.70
2009,08,24,16,29,19.70
2009,08,24,16,30,19.80
2009,08,24,16,31,19.90
2009,08,24,16,32,19.90
2009,08,24,16,33,19.90
2009,08,24,16,34,19.90
2009,08,24,16,35,19.90
2009,08,24,16,36,19.90
2009,08,24,16,37,19.90
2009,08,24,16,38,19.90
2009,08,24,16,39,20.00
2009,08,24,16,40,20.00
2009,08,24,16,41,19.90
2009,08,24,16,42,19.90
2009,08,24,16,43,19.90
2009,08,24,16,44,19.80
2009,08,24,16,45,19.80
2009,08,24,16,46,19.70
2009,08,24,16,47,19.60
2009,08,24,16,48,19.70
2009,08,24,16,49,19.70
2009,08,24,16,50,19.70
2009,08,24,16,51,19.70
2009,08,24,16,52,19.80
2009,08,24,16,53,19.90
2009,08,24,16,54,19.90
2009,08,24,16,55,19.90
2009,08,24,16,56,19.90
2009,08,24,16,57,20.00
2009,08,24,16,58,20.10
2009,08,24,16,59,20.20
2009,08,24,17,00,20.20
2009,08,24,17,01,20.40
2009,08,24,17,02,20.50
2009,08,24,17,03,20.60
2009,08,24,17,04,20.60
2009,08,24,17,05,20.70
2009,08,24,17,06,20.70
2009,08,24,17,07,20.60
2009,08,24,17,08,20.40
2009,08,24,17,09,20.20
2009,08,24,17,10,20.00
2009,08,24,17,11,19.80
2009,08,24,17,12,19.70
2009,08,24,17,13,19.70
2009,08,24,17,14,19.70
2009,08,24,17,15,19.70
2009,08,24,17,16,19.70
2009,08,24,17,17,19.70
2009,08,24,17,18,19.60
2009,08,24,17,19,19.50
2009,08,24,17,20,19.40
2009,08,24,17,21,19.30
2009,08,24,17,22,19.20
2009,08,24,17,23,19.10
2009,08,24,17,24,19.10
2009,08,24,17,25,19.10
2009,08,24,17,26,18.90
2009,08,24,17,27,19.00
2009,08,24,17,28,19.10
2009,08,24,17,29,19.10
2009,08,24,17,30,19.10
2009,08,24,17,31,18.90
2009,08,24,17,32,18.90
2009,08,24,17,33,18.90